FW9022 Weather Reports


Display with metric or nautical units.
time (UTC)temp
F
wind
direction
speed
MPH
gust
MPH
rain 1hr
in
rain 24hr
in
rain mn
in
humidity
%
barometer
mb
20260903133838 78 82 0.0 2.0 0.00 0.00 0.00 82 1021.5
20260903132833 77 38 0.0 0.0 0.00 0.00 0.00 86 1021.8
20260903131827 75 38 0.0 1.0 0.00 0.00 0.00 89 1021.8
20260903130852 72 38 0.0 0.0 0.00 0.00 0.00 96 1022.2
20260903125852 70 38 0.0 1.0 0.00 0.00 0.00 98 1022.3
20260903124829 69 60 0.0 1.0 0.00 0.00 0.00 98 1022.3
20260903123820 68 60 0.0 0.0 0.00 0.00 0.00 98 1021.6
20260903122835 67 60 0.0 1.0 0.00 0.00 0.00 98 1021.7
20260903121832 66 60 0.0 0.0 0.00 0.00 0.00 98 1021.7
20260903120837 66 60 0.0 0.0 0.00 0.00 0.00 98 1022.2
20260903115837 66 60 0.0 1.0 0.00 0.00 0.00 98 1021.3
20260903114831 65 60 0.0 0.0 0.00 0.00 0.00 98 1021.3
20260903113829 65 60 0.0 0.0 0.00 0.00 0.00 97 1021.2
20260903112822 65 60 0.0 0.0 0.00 0.00 0.00 98 1020.9
20260903111836 65 60 0.0 0.0 0.00 0.00 0.00 98 1020.9
20260903110845 65 60 0.0 0.0 0.00 0.00 0.00 98 1021.1
20260903105824 65 60 0.0 0.0 0.00 0.00 0.00 98 1021.0
20260903104838 65 60 0.0 0.0 0.00 0.00 0.00 97 1021.0
20260903103831 66 60 0.0 0.0 0.00 0.00 0.00 97 1021.0
20260903102829 66 60 0.0 1.0 0.00 0.00 0.00 97 1020.9
20260903101842 66 60 0.0 0.0 0.00 0.00 0.00 97 1020.9
20260903100846 66 60 0.0 0.0 0.00 0.00 0.00 97 1020.7
20260903095847 66 60 0.0 0.0 0.00 0.00 0.00 97 1020.8
20260903094823 66 60 0.0 0.0 0.00 0.00 0.00 97 1020.8
20260903093837 66 60 0.0 0.0 0.00 0.00 0.00 97 1020.7
20260903092831 66 60 0.0 0.0 0.00 0.00 0.00 97 1020.6
20260903091849 66 60 0.0 0.0 0.00 0.00 0.00 97 1020.6
20260903090852 66 60 0.0 0.0 0.00 0.00 0.00 97 1020.4
20260903085851 67 60 0.0 0.0 0.00 0.00 0.00 97 1020.1
20260903084825 67 60 0.0 0.0 0.00 0.00 0.00 97 1020.1
20260903083843 67 60 0.0 0.0 0.00 0.00 0.00 97 1020.1
20260903082836 67 60 0.0 0.0 0.00 0.00 0.00 97 1020.1
20260903081850 67 60 0.0 0.0 0.00 0.00 0.00 97 1020.1
20260903080833 67 60 0.0 0.0 0.00 0.00 0.00 97 1020.1
20260903075817 67 60 0.0 0.0 0.00 0.00 0.00 97 1020.1
20260903074831 67 60 0.0 0.0 0.00 0.00 0.00 97 1020.1
20260903073825 68 60 0.0 0.0 0.00 0.00 0.00 97 1020.1
20260903072819 68 60 0.0 0.0 0.00 0.00 0.00 97 1020.1
20260903071818 68 60 0.0 0.0 0.00 0.00 0.00 97 1020.1
20260903070841 68 60 0.0 1.0 0.00 0.00 0.00 97 1020.0
20260903065821 68 60 0.0 0.0 0.00 0.00 0.00 96 1020.1
20260903064818 68 60 0.0 0.0 0.00 0.00 0.00 96 1020.1
20260903063833 68 60 0.0 0.0 0.00 0.00 0.00 96 1020.2
20260903062846 68 60 0.0 0.0 0.00 0.00 0.00 96 1020.2
20260903061820 69 60 0.0 0.0 0.00 0.00 0.00 96 1020.2
20260903060848 69 60 0.0 0.0 0.00 0.00 0.00 96 1021.3
20260903055828 69 60 0.0 0.0 0.00 0.00 0.00 96 1021.5
20260903054823 69 60 0.0 0.0 0.00 0.00 0.00 96 1021.5
20260903053820 69 60 0.0 0.0 0.00 0.00 0.00 95 1021.5
20260903052834 69 60 0.0 0.0 0.00 0.00 0.00 95 1021.3
20260903051847 70 60 0.0 0.0 0.00 0.00 0.00 96 1021.3
20260903050850 70 60 0.0 0.0 0.00 0.00 0.00 95 1021.6
20260903045834 70 60 0.0 0.0 0.00 0.00 0.00 95 1021.5
20260903044828 70 60 0.0 0.0 0.00 0.00 0.00 95 1021.5
20260903043821 70 60 0.0 0.0 0.00 0.00 0.00 95 1021.6
20260903042855 70 60 0.0 0.0 0.00 0.00 0.00 95 1021.5
20260903041852 70 60 0.0 0.0 0.00 0.00 0.00 95 1021.5
20260903040836 71 60 0.0 0.0 0.00 0.00 0.00 94 1020.8
20260903035835 71 60 0.0 0.0 0.00 0.00 0.00 94 1020.9
20260903034849 71 60 0.0 0.0 0.00 0.00 0.00 94 1020.9
20260903033826 71 60 0.0 0.0 0.00 0.00 0.00 94 1021.1
20260903032820 72 60 0.0 0.0 0.00 0.00 0.00 94 1022.0
20260903031833 72 60 0.0 0.0 0.00 0.00 0.00 94 1022.0
20260903030838 72 60 0.0 0.0 0.00 0.00 0.00 93 1021.2
20260903025841 72 60 0.0 0.0 0.00 0.00 0.00 93 1021.2
20260903024853 72 60 0.0 0.0 0.00 0.00 0.00 93 1021.2
20260903023826 73 60 0.0 0.0 0.00 0.00 0.00 92 1021.3
20260903022819 73 60 0.0 0.0 0.00 0.00 0.00 92 1021.2
20260903021858 73 60 0.0 1.0 0.00 0.00 0.00 92 1021.2
20260903020842 73 60 0.0 0.0 0.00 0.00 0.00 91 1021.4
20260903015821 74 60 0.0 1.0 0.00 0.00 0.00 91 1021.2
20260903014819 74 60 0.0 0.0 0.00 0.00 0.00 90 1021.2
20260903013852 74 60 0.0 0.0 0.00 0.00 0.00 89 1020.9
20260903012824 75 60 0.0 0.0 0.00 0.00 0.00 89 1020.8
20260903011817 75 60 0.0 0.0 0.00 0.00 0.00 88 1020.8
20260903010845 76 60 0.0 1.0 0.00 0.00 0.00 88 1021.1
20260903005825 76 60 0.0 0.0 0.00 0.00 0.00 87 1021.0
20260903004819 77 60 0.0 0.0 0.00 0.00 0.00 86 1021.0
20260903003834 77 60 0.0 0.0 0.00 0.00 0.00 84 1020.6
20260903002831 78 60 0.0 0.0 0.00 0.00 0.00 82 1020.3
20260903001825 79 60 0.0 0.0 0.00 0.00 0.00 82 1020.3
20260903000850 80 60 1.0 1.0 0.00 0.00 0.00 79 1020.5
20260902235835 81 60 0.0 0.0 0.00 0.00 0.00 77 1020.2
20260902234827 82 60 0.0 1.0 0.00 0.00 0.00 75 1020.2
20260902233821 83 60 0.0 0.0 0.00 0.00 0.00 73 1020.0
20260902232835 85 60 0.0 0.0 0.00 0.00 0.00 69 1019.9
20260902231853 86 60 0.0 0.0 0.00 0.00 0.00 64 1019.9
20260902230836 87 60 0.0 0.0 0.00 0.00 0.00 62 1019.9
20260902225837 87 60 0.0 0.0 0.00 0.00 0.00 59 1019.9
20260902224830 87 60 0.0 0.0 0.00 0.00 0.00 58 1019.9
20260902223827 88 60 0.0 2.0 0.00 0.00 0.00 58 1019.9
20260902222842 88 60 0.0 1.0 0.00 0.00 0.00 57 1019.9
20260902221835 89 60 0.0 2.0 0.00 0.00 0.00 55 1019.9
20260902220842 89 60 0.0 2.0 0.00 0.00 0.00 53 1020.0
20260902215822 90 60 0.0 0.0 0.00 0.00 0.00 53 1019.7
20260902214835 91 60 0.0 1.0 0.00 0.00 0.00 49 1019.7
20260902213830 92 60 0.0 0.0 0.00 0.00 0.00 48 1019.7
20260902212827 91 60 0.0 2.0 0.00 0.00 0.00 48 1019.8
20260902211821 91 40 0.0 3.0 0.00 0.00 0.00 48 1019.8
20260902210846 91 42 1.0 3.0 0.00 0.00 0.00 45 1019.9
20260902205830 92 172 0.0 2.0 0.00 0.00 0.00 43 1019.8
20260902204822 91 32 0.0 2.0 0.00 0.00 0.00 46 1019.8
20260902203836 91 38 1.0 3.0 0.00 0.00 0.00 44 1019.9
20260902202830 91 40 0.0 3.0 0.00 0.00 0.00 46 1020.0
20260902201847 91 161 0.0 4.0 0.00 0.00 0.00 46 1020.0
20260902200850 91 38 1.0 3.0 0.00 0.00 0.00 44 1020.2
20260902195830 91 24 0.0 4.0 0.00 0.00 0.00 46 1020.3
20260902194823 91 119 1.0 2.0 0.00 0.00 0.00 46 1020.3
20260902193842 91 127 0.0 5.0 0.00 0.00 0.00 48 1020.5
20260902192835 91 28 1.0 4.0 0.00 0.00 0.00 47 1020.8
20260902191828 91 26 0.0 2.0 0.00 0.00 0.00 46 1020.8
20260902190833 90 36 0.0 4.0 0.00 0.00 0.00 48 1021.5
20260902185836 91 53 1.0 3.0 0.00 0.00 0.00 50 1021.6
20260902184830 91 118 1.0 6.0 0.00 0.00 0.00 50 1021.6
20260902183824 91 129 1.0 2.0 0.00 0.00 0.00 51 1021.9
20260902182821 91 129 1.0 2.0 0.00 0.00 0.00 52 1021.2
20260902181835 90 71 0.0 4.0 0.00 0.00 0.00 53 1021.2
20260902180839 90 69 1.0 4.0 0.00 0.00 0.00 52 1022.1
20260902175818 90 113 1.0 2.0 0.00 0.00 0.00 52 1021.4
20260902174836 89 113 1.0 2.0 0.00 0.00 0.00 54 1021.4
20260902173831 89 113 1.0 2.0 0.00 0.00 0.00 54 1021.6
20260902172824 89 113 0.0 2.0 0.00 0.00 0.00 55 1021.8
20260902171822 89 113 2.0 2.0 0.00 0.00 0.00 54 1021.8
20260902170846 89 113 0.0 1.0 0.00 0.00 0.00 60 1022.6
20260902165826 89 113 0.0 2.0 0.00 0.00 0.00 62 1022.9
20260902164820 88 113 0.0 3.0 0.00 0.00 0.00 64 1022.9
20260902163837 87 134 1.0 3.0 0.00 0.00 0.00 65 1022.4
20260902162830 87 115 1.0 2.0 0.00 0.00 0.00 65 1022.5
20260902161824 86 52 0.0 3.0 0.00 0.00 0.00 67 1022.5
20260902160832 86 61 1.0 4.0 0.00 0.00 0.00 67 1023.6
20260902155832 86 96 0.0 2.0 0.00 0.00 0.00 67 1023.7
20260902154826 86 96 0.0 3.0 0.00 0.00 0.00 68 1023.7
20260902153820 85 94 1.0 3.0 0.00 0.00 0.00 68 1023.7
20260902152837 85 130 0.0 3.0 0.00 0.00 0.00 71 1022.8
20260902151831 84 135 3.0 4.0 0.00 0.00 0.00 71 1022.8
20260902150836 84 142 2.0 4.0 0.00 0.00 0.00 73 1022.6
20260902145820 84 192 1.0 2.0 0.00 0.00 0.00 71 1022.6
20260902144834 83 192 1.0 3.0 0.00 0.00 0.00 74 1022.6
20260902143829 82 128 1.0 3.0 0.00 0.00 0.00 74 1022.8
20260902142822 82 63 0.0 1.0 0.00 0.00 0.00 75 1022.8
20260902141821 81 207 0.0 1.0 0.00 0.00 0.00 77 1022.8
20260902140845 80 209 1.0 2.0 0.00 0.00 0.00 77 1023.0
20260902135844 79 134 0.0 0.0 0.00 0.00 0.00 80 1023.1
20260902134820 78 134 0.0 1.0 0.00 0.00 0.00 82 1023.1